When you browse on this site, cookies collect data to enhance your experience and personalize the content and advertising you see.
Visit our Privacy Policy to learn more. By continuing to use the site, you agree to this use of cookies and data.
  • In Österreich
  • Länderverzeichnis
  • Für 7 Tage
  • Wassertemperatur
  • Wetterkarte
  • News
  • Widgets
  • user-avatar
    Anmelden

    Stündliche Wetter Julara

    Heute, 25 Januar, Samstag

    Zeit Temperatur Niederschläge Wind Luftdruck Luftfeuchtigkeit
    00:00 +29°C° 0 mm 9 m/S 716 mmHg 20%
    01:00 +29°C° 0 mm 8 m/S 716 mmHg 20%
    02:00 +28°C° 0 mm 7 m/S 716 mmHg 20%
    03:00 +26°C° 0 mm 6 m/S 715 mmHg 21%
    04:00 +26°C° 0 mm 5 m/S 716 mmHg 21%
    05:00 +25°C° 0 mm 4 m/S 716 mmHg 21%
    06:00 +25°C° 0 mm 4 m/S 716 mmHg 21%
    07:00 +27°C° 0 mm 5 m/S 716 mmHg 20%
    08:00 +29°C° 0 mm 6 m/S 717 mmHg 18%
    09:00 +32°C° 0 mm 7 m/S 717 mmHg 16%
    10:00 +34°C° 0 mm 6 m/S 717 mmHg 16%
    11:00 +35°C° 0 mm 6 m/S 717 mmHg 16%
    12:00 +37°C° 0 mm 5 m/S 716 mmHg 15%
    13:00 +38°C° 0 mm 4 m/S 716 mmHg 14%
    14:00 +38°C° 0 mm 3 m/S 715 mmHg 13%
    15:00 +39°C° 0 mm 3 m/S 715 mmHg 12%
    16:00 +39°C° 0 mm 3 m/S 714 mmHg 12%
    17:00 +39°C° 0 mm 3 m/S 714 mmHg 11%
    18:00 +40°C° 0 mm 4 m/S 714 mmHg 10%
    19:00 +37°C° 0 mm 4 m/S 714 mmHg 12%
    20:00 +36°C° 0 mm 4 m/S 715 mmHg 13%
    21:00 +34°C° 0 mm 4 m/S 715 mmHg 14%
    22:00 +33°C° 0 mm 4 m/S 715 mmHg 15%
    23:00 +32°C° 0 mm 5 m/S 715 mmHg 16%

    Morgen, 26 Januar, Sonntag

    Zeit Temperatur Niederschläge Wind Luftdruck Luftfeuchtigkeit
    00:00 +30°C° 0 mm 6 m/S 715 mmHg 17%
    01:00 +29°C° 0 mm 6 m/S 715 mmHg 17%
    02:00 +28°C° 0 mm 6 m/S 715 mmHg 18%
    03:00 +27°C° 0 mm 5 m/S 715 mmHg 18%
    04:00 +27°C° 0 mm 5 m/S 715 mmHg 19%
    05:00 +26°C° 0 mm 5 m/S 715 mmHg 20%
    06:00 +25°C° 0 mm 4 m/S 716 mmHg 21%
    07:00 +28°C° 0 mm 5 m/S 716 mmHg 19%
    08:00 +30°C° 0 mm 6 m/S 717 mmHg 16%
    09:00 +34°C° 0 mm 7 m/S 717 mmHg 14%
    10:00 +35°C° 0 mm 6 m/S 717 mmHg 13%
    11:00 +38°C° 0 mm 6 m/S 717 mmHg 12%
    12:00 +39°C° 0 mm 5 m/S 716 mmHg 11%
    13:00 +40°C° 0 mm 5 m/S 716 mmHg 10%
    14:00 +41°C° 0 mm 4 m/S 715 mmHg 10%
    15:00 +41°C° 0 mm 4 m/S 715 mmHg 10%
    16:00 +41°C° 0 mm 4 m/S 715 mmHg 10%
    17:00 +41°C° 0 mm 5 m/S 715 mmHg 11%
    18:00 +41°C° 0 mm 5 m/S 715 mmHg 11%
    19:00 +39°C° 0 mm 5 m/S 715 mmHg 12%
    20:00 +36°C° 0 mm 5 m/S 715 mmHg 14%
    21:00 +34°C° 0 mm 5 m/S 716 mmHg 16%
    22:00 +33°C° 0 mm 6 m/S 716 mmHg 17%
    23:00 +33°C° 0 mm 6 m/S 716 mmHg 18%

    übermorgen, 27 Januar, Montag

    Zeit Temperatur Niederschläge Wind Luftdruck Luftfeuchtigkeit
    00:00 +32°C° 0 mm 7 m/S 716 mmHg 19%
    01:00 +30°C° 0 mm 6 m/S 716 mmHg 20%
    02:00 +29°C° 0 mm 6 m/S 715 mmHg 21%
    03:00 +28°C° 0 mm 5 m/S 715 mmHg 22%
    04:00 +28°C° 0 mm 5 m/S 715 mmHg 23%
    05:00 +27°C° 0 mm 4 m/S 716 mmHg 24%
    06:00 +27°C° 0 mm 4 m/S 716 mmHg 25%
    07:00 +29°C° 0 mm 5 m/S 716 mmHg 22%
    08:00 +33°C° 0 mm 6 m/S 717 mmHg 19%
    09:00 +35°C° 0 mm 7 m/S 718 mmHg 16%
    10:00 +38°C° 0 mm 7 m/S 717 mmHg 14%
    11:00 +39°C° 0 mm 6 m/S 717 mmHg 13%
    12:00 +40°C° 0 mm 6 m/S 716 mmHg 12%
    13:00 +41°C° 0 mm 6 m/S 716 mmHg 11%
    14:00 +42°C° 0 mm 6 m/S 715 mmHg 10%
    15:00 +42°C° 0 mm 6 m/S 715 mmHg 9%
    16:00 +43°C° 0 mm 7 m/S 714 mmHg 10%
    17:00 +41°C° 0 mm 7 m/S 714 mmHg 10%
    18:00 +41°C° 0 mm 7 m/S 714 mmHg 11%
    19:00 +39°C° 0 mm 8 m/S 715 mmHg 13%
    20:00 +37°C° 0 mm 8 m/S 715 mmHg 14%
    21:00 +35°C° 0 mm 8 m/S 716 mmHg 16%
    22:00 +34°C° 0 mm 7 m/S 716 mmHg 17%
    23:00 +33°C° 0 mm 7 m/S 716 mmHg 19%

    28 Januar, Dienstag

    Zeit Temperatur Niederschläge Wind Luftdruck Luftfeuchtigkeit
    00:00 +32°C° 0 mm 6 m/S 716 mmHg 20%
    01:00 +32°C° 0 mm 7 m/S 716 mmHg 20%
    02:00 +30°C° 0 mm 7 m/S 716 mmHg 20%
    03:00 +29°C° 0 mm 8 m/S 715 mmHg 20%
    04:00 +28°C° 0 mm 7 m/S 716 mmHg 22%
    05:00 +27°C° 0 mm 7 m/S 716 mmHg 23%
    06:00 +27°C° 0 mm 7 m/S 716 mmHg 25%
    07:00 +29°C° 0 mm 7 m/S 716 mmHg 24%
    08:00 +32°C° 0 mm 8 m/S 717 mmHg 23%
    09:00 +34°C° 0 mm 9 m/S 717 mmHg 21%
    10:00 +37°C° 0 mm 8 m/S 717 mmHg 19%
    11:00 +39°C° 0 mm 7 m/S 717 mmHg 16%
    12:00 +40°C° 0 mm 7 m/S 716 mmHg 14%
    13:00 +41°C° 0 mm 6 m/S 716 mmHg 13%
    14:00 +42°C° 0 mm 6 m/S 715 mmHg 12%
    15:00 +44°C° 0 mm 6 m/S 714 mmHg 11%
    16:00 +42°C° 0 mm 6 m/S 714 mmHg 11%
    17:00 +42°C° 0 mm 6 m/S 714 mmHg 11%
    18:00 +43°C° 0 mm 7 m/S 714 mmHg 11%
    19:00 +40°C° 0 mm 6 m/S 714 mmHg 13%
    20:00 +38°C° 0 mm 6 m/S 715 mmHg 14%
    21:00 +35°C° 0 mm 6 m/S 715 mmHg 16%
    22:00 +34°C° 0 mm 5 m/S 715 mmHg 17%
    23:00 +33°C° 0 mm 5 m/S 715 mmHg 18%

    29 Januar, Mittwoch

    Zeit Temperatur Niederschläge Wind Luftdruck Luftfeuchtigkeit
    00:00 +32°C° 0 mm 5 m/S 715 mmHg 19%
    01:00 +32°C° 0 mm 5 m/S 715 mmHg 20%
    02:00 +30°C° 0 mm 5 m/S 714 mmHg 21%
    03:00 +29°C° 0 mm 5 m/S 714 mmHg 22%
    04:00 +29°C° 0 mm 5 m/S 714 mmHg 23%
    05:00 +28°C° 0 mm 5 m/S 714 mmHg 24%
    06:00 +28°C° 0 mm 5 m/S 715 mmHg 25%
    07:00 +30°C° 0 mm 7 m/S 715 mmHg 22%
    08:00 +34°C° 0 mm 8 m/S 715 mmHg 19%
    09:00 +37°C° 0 mm 10 m/S 716 mmHg 16%
    10:00 +39°C° 0 mm 9 m/S 715 mmHg 15%
    11:00 +41°C° 0 mm 8 m/S 715 mmHg 14%
    12:00 +43°C° 0 mm 7 m/S 715 mmHg 12%
    13:00 +44°C° 0 mm 6 m/S 714 mmHg 13%
    14:00 +44°C° 0 mm 6 m/S 713 mmHg 13%
    15:00 +45°C° 0 mm 6 m/S 712 mmHg 14%
    16:00 +44°C° 0 mm 6 m/S 712 mmHg 14%
    17:00 +44°C° 0 mm 6 m/S 712 mmHg 14%
    18:00 +42°C° 0 mm 6 m/S 712 mmHg 15%
    19:00 +40°C° 0 mm 5 m/S 712 mmHg 18%
    20:00 +39°C° 0 mm 5 m/S 712 mmHg 22%
    21:00 +36°C° 0 mm 4 m/S 712 mmHg 25%
    22:00 +35°C° 0 mm 4 m/S 712 mmHg 27%
    23:00 +34°C° 0 mm 4 m/S 712 mmHg 29%

    30 Januar, Donnerstag

    Zeit Temperatur Niederschläge Wind Luftdruck Luftfeuchtigkeit
    00:00 +33°C° 0 mm 4 m/S 712 mmHg 32%
    01:00 +33°C° 0 mm 4 m/S 712 mmHg 35%
    02:00 +31°C° 0 mm 3 m/S 712 mmHg 39%
    03:00 +30°C° 0 mm 3 m/S 711 mmHg 42%
    04:00 +30°C° 0 mm 3 m/S 712 mmHg 47%
    05:00 +29°C° 0 mm 3 m/S 712 mmHg 51%
    06:00 +29°C° 0 mm 3 m/S 712 mmHg 55%
    07:00 +30°C° 0 mm 5 m/S 712 mmHg 50%
    08:00 +33°C° 0 mm 6 m/S 712 mmHg 44%
    09:00 +35°C° 0 mm 8 m/S 713 mmHg 39%
    10:00 +37°C° 0 mm 8 m/S 712 mmHg 36%
    11:00 +39°C° 0 mm 8 m/S 712 mmHg 34%
    12:00 +40°C° 0 mm 9 m/S 711 mmHg 31%
    13:00 +40°C° 0 mm 9 m/S 711 mmHg 33%
    14:00 +39°C° 0 mm 8 m/S 710 mmHg 35%
    15:00 +39°C° 0 mm 8 m/S 709 mmHg 37%
    16:00 +38°C° 0 mm 8 m/S 709 mmHg 40%
    17:00 +37°C° 0 mm 8 m/S 709 mmHg 43%
    18:00 +35°C° 0 mm 7 m/S 709 mmHg 46%
    19:00 +33°C° 0.1 mm 8 m/S 710 mmHg 55%
    20:00 +31°C° 0.1 mm 8 m/S 710 mmHg 65%
    21:00 +28°C° 0.1 mm 8 m/S 711 mmHg 75%
    22:00 +28°C° 0.2 mm 7 m/S 711 mmHg 75%
    23:00 +28°C° 0.2 mm 7 m/S 711 mmHg 75%
    Mehr zeigen